ACA123 CYYZ-CYVR

Flight info

Callsign ACA123
Flight time 4h 40m
Altitude 32000
Route URSAL4 KASED DCT VACAY DCT RIMBE DCT KP15G DCT CENVI/N0454F340 DCT KP21A DCT PETBO DCT MUSRA DCT BEVEL DCT AMENA DCT FIRNI DCT YXC DCT BOOTH CANUC5
Aircraft A321/M-SDE3FGHIRWY/LB1

Departure

Time 2026-05-06 23:04
Airport Toronto Pearson International Airport (CYYZ)

Arrival

Time 2026-05-07 03:45
Airport Vancouver International Airport (CYVR)
Time Latitude Longitude Altitude Speed Heading
2026-05-06 22:39 43.68063 -79.61679 570 ft 0 kts 136°
2026-05-06 22:48 43.68066 -79.61683 570 ft 2 kts 133°
2026-05-06 22:49 43.68076 -79.61698 570 ft 2 kts 136°
2026-05-06 22:49 43.68087 -79.61712 571 ft 2 kts 136°
2026-05-06 22:49 43.68098 -79.61726 571 ft 2 kts 136°
2026-05-06 22:49 43.68111 -79.61736 571 ft 2 kts 170°
2026-05-06 22:50 43.68126 -79.61736 571 ft 2 kts 195°
2026-05-06 22:50 43.68133 -79.61733 571 ft 1 kts 206°
2026-05-06 22:50 43.68136 -79.61731 571 ft 0 kts 204°
2026-05-06 22:53 43.68132 -79.61732 571 ft 1 kts 206°
2026-05-06 22:53 43.68096 -79.61777 572 ft 10 kts 226°
2026-05-06 22:53 43.68041 -79.61858 571 ft 12 kts 227°
2026-05-06 22:53 43.67995 -79.61948 572 ft 11 kts 248°
2026-05-06 22:54 43.67979 -79.62006 573 ft 5 kts 248°
2026-05-06 22:54 43.67962 -79.62063 572 ft 6 kts 251°
2026-05-06 22:54 43.67983 -79.62116 573 ft 6 kts 315°
2026-05-06 22:54 43.68015 -79.62157 573 ft 6 kts 316°
2026-05-06 22:55 43.68050 -79.62202 573 ft 7 kts 316°
2026-05-06 22:55 43.68093 -79.62260 573 ft 10 kts 316°
2026-05-06 22:55 43.68160 -79.62344 573 ft 13 kts 317°
2026-05-06 22:55 43.68236 -79.62440 571 ft 15 kts 319°
2026-05-06 22:56 43.68319 -79.62543 569 ft 16 kts 317°
2026-05-06 22:56 43.68409 -79.62657 565 ft 18 kts 316°
2026-05-06 22:56 43.68391 -79.62810 562 ft 18 kts 225°
2026-05-06 22:56 43.68300 -79.62940 561 ft 19 kts 226°
2026-05-06 22:57 43.68209 -79.63073 560 ft 19 kts 226°
2026-05-06 22:57 43.68193 -79.63219 555 ft 18 kts 316°
2026-05-06 22:57 43.68288 -79.63342 553 ft 19 kts 316°
2026-05-06 22:57 43.68392 -79.63478 547 ft 21 kts 317°
2026-05-06 22:58 43.68503 -79.63623 544 ft 22 kts 316°
2026-05-06 22:58 43.68617 -79.63775 541 ft 22 kts 315°
2026-05-06 22:58 43.68669 -79.63967 539 ft 21 kts 270°
2026-05-06 22:58 43.68665 -79.64171 539 ft 20 kts 249°
2026-05-06 22:59 43.68572 -79.64323 538 ft 21 kts 226°
2026-05-06 22:59 43.68475 -79.64464 539 ft 19 kts 227°
2026-05-06 22:59 43.68380 -79.64603 537 ft 19 kts 226°
2026-05-06 22:59 43.68285 -79.64739 537 ft 19 kts 226°
2026-05-06 23:00 43.68193 -79.64875 537 ft 18 kts 227°
2026-05-06 23:00 43.68107 -79.64999 540 ft 16 kts 226°
2026-05-06 23:00 43.68029 -79.65112 545 ft 17 kts 226°
2026-05-06 23:00 43.67942 -79.65238 550 ft 18 kts 226°
2026-05-06 23:01 43.67852 -79.65370 556 ft 19 kts 226°
2026-05-06 23:01 43.67761 -79.65501 559 ft 18 kts 226°
2026-05-06 23:01 43.67677 -79.65623 562 ft 16 kts 226°
2026-05-06 23:01 43.67602 -79.65733 564 ft 14 kts 226°
2026-05-06 23:02 43.67530 -79.65838 563 ft 15 kts 226°
2026-05-06 23:02 43.67453 -79.65950 562 ft 16 kts 226°
2026-05-06 23:02 43.67371 -79.66067 561 ft 16 kts 225°
2026-05-06 23:02 43.67293 -79.66178 561 ft 16 kts 230°
2026-05-06 23:03 43.67324 -79.66303 560 ft 15 kts 322°
2026-05-06 23:03 43.67416 -79.66381 561 ft 14 kts 356°
2026-05-06 23:03 43.67494 -79.66290 563 ft 25 kts 46°
2026-05-06 23:03 43.67788 -79.65864 564 ft 96 kts 45°
2026-05-06 23:04 43.68408 -79.64967 541 ft 158 kts 46°
2026-05-06 23:04 43.69257 -79.63724 821 ft 185 kts 46°
2026-05-06 23:04 43.70147 -79.62488 1546 ft 185 kts 38°
2026-05-06 23:04 43.71135 -79.61352 2282 ft 185 kts 36°
2026-05-06 23:05 43.72105 -79.60211 2676 ft 190 kts 36°
2026-05-06 23:05 43.73143 -79.58971 2931 ft 202 kts 36°
2026-05-06 23:05 43.74352 -79.57978 3178 ft 206 kts
2026-05-06 23:05 43.75766 -79.58315 3342 ft 215 kts 323°
2026-05-06 23:06 43.76671 -79.59969 3589 ft 229 kts 288°
2026-05-06 23:06 43.76889 -79.62220 3886 ft 244 kts 277°
2026-05-06 23:06 43.77100 -79.64585 4365 ft 250 kts 280°
2026-05-06 23:06 43.77371 -79.66946 5016 ft 250 kts 280°
2026-05-06 23:07 43.77658 -79.69305 5652 ft 251 kts 280°
2026-05-06 23:07 43.77953 -79.71702 6246 ft 253 kts 280°
2026-05-06 23:07 43.78251 -79.74119 6878 ft 254 kts 279°
2026-05-06 23:07 43.78550 -79.76538 7490 ft 255 kts 279°
2026-05-06 23:08 43.78848 -79.78960 8072 ft 257 kts 279°
2026-05-06 23:08 43.79145 -79.81358 8663 ft 258 kts 278°
2026-05-06 23:08 43.79449 -79.83827 9238 ft 260 kts 278°
2026-05-06 23:08 43.79754 -79.86297 9794 ft 262 kts 278°
2026-05-06 23:09 43.80059 -79.88786 10311 ft 264 kts 277°
2026-05-06 23:09 43.80367 -79.91318 10582 ft 276 kts 277°
2026-05-06 23:09 43.80696 -79.94024 10823 ft 289 kts 277°
2026-05-06 23:09 43.81033 -79.96796 11057 ft 301 kts 277°
2026-05-06 23:10 43.81388 -79.99706 11287 ft 313 kts 277°
2026-05-06 23:10 43.81756 -80.02724 11534 ft 323 kts 277°
2026-05-06 23:10 43.82135 -80.05848 11871 ft 330 kts 277°
2026-05-06 23:10 43.82519 -80.09013 12364 ft 332 kts 277°
2026-05-06 23:11 43.82901 -80.12160 12882 ft 332 kts 277°
2026-05-06 23:11 43.83299 -80.15318 13370 ft 334 kts 279°
2026-05-06 23:11 43.83875 -80.18432 13850 ft 337 kts 283°
2026-05-06 23:11 43.84654 -80.21456 14341 ft 339 kts 288°
2026-05-06 23:12 43.85601 -80.24458 14764 ft 343 kts 289°
2026-05-06 23:12 43.86592 -80.27510 15156 ft 346 kts 290°
2026-05-06 23:12 43.87582 -80.30541 15562 ft 348 kts 290°
2026-05-06 23:12 43.88591 -80.33634 15974 ft 350 kts 289°
2026-05-06 23:13 43.89590 -80.36700 16371 ft 352 kts 289°
2026-05-06 23:13 43.90606 -80.39819 16763 ft 354 kts 289°
2026-05-06 23:13 43.91613 -80.42916 17147 ft 356 kts 289°
2026-05-06 23:13 43.92644 -80.46094 17508 ft 358 kts 289°
2026-05-06 23:14 43.93663 -80.49232 17853 ft 360 kts 289°
2026-05-06 23:14 43.94694 -80.52421 18227 ft 362 kts 289°
2026-05-06 23:14 43.95728 -80.55612 18602 ft 363 kts 289°
2026-05-06 23:14 43.96769 -80.58835 18964 ft 364 kts 288°
2026-05-06 23:15 43.97799 -80.62029 19328 ft 364 kts 288°
2026-05-06 23:15 43.98820 -80.65196 19675 ft 365 kts 288°
2026-05-06 23:15 43.99852 -80.68404 20042 ft 366 kts 288°
2026-05-06 23:15 44.00896 -80.71652 20414 ft 367 kts 288°
2026-05-06 23:16 44.01941 -80.74909 20791 ft 367 kts 287°
2026-05-06 23:16 44.02967 -80.78107 21143 ft 367 kts 287°
2026-05-06 23:16 44.04005 -80.81347 21489 ft 368 kts 287°
2026-05-06 23:16 44.05047 -80.84607 21810 ft 369 kts 287°
2026-05-06 23:17 44.06081 -80.87846 22112 ft 370 kts 287°
2026-05-06 23:17 44.07122 -80.91110 22419 ft 371 kts 287°
2026-05-06 23:17 44.08178 -80.94418 22732 ft 372 kts 287°
2026-05-06 23:17 44.09235 -80.97737 23033 ft 373 kts 287°
2026-05-06 23:18 44.10281 -81.01026 23317 ft 374 kts 286°
2026-05-06 23:18 44.11322 -81.04308 23556 ft 376 kts 287°
2026-05-06 23:18 44.12386 -81.07667 23775 ft 378 kts 286°
2026-05-06 23:18 44.13448 -81.11028 23990 ft 380 kts 287°
2026-05-06 23:19 44.14515 -81.14401 24266 ft 381 kts 287°
2026-05-06 23:19 44.15589 -81.17804 24503 ft 382 kts 287°
2026-05-06 23:19 44.16653 -81.21175 24756 ft 383 kts 287°
2026-05-06 23:19 44.17724 -81.24569 25001 ft 384 kts 287°
2026-05-06 23:20 44.18799 -81.27986 25226 ft 385 kts 287°
2026-05-06 23:20 44.19881 -81.31433 25455 ft 387 kts 287°
2026-05-06 23:20 44.20964 -81.34876 25678 ft 388 kts 286°
2026-05-06 23:20 44.22053 -81.38355 25892 ft 389 kts 287°
2026-05-06 23:21 44.23135 -81.41819 26096 ft 391 kts 287°
2026-05-06 23:21 44.24224 -81.45296 26302 ft 392 kts 287°
2026-05-06 23:21 44.25325 -81.48824 26529 ft 392 kts 286°
2026-05-06 23:21 44.26409 -81.52298 26814 ft 391 kts 287°
2026-05-06 23:22 44.27506 -81.55818 27093 ft 390 kts 287°
2026-05-06 23:22 44.28577 -81.59259 27351 ft 389 kts 287°
2026-05-06 23:22 44.29654 -81.62726 27602 ft 389 kts 287°
2026-05-06 23:22 44.30739 -81.66226 27896 ft 387 kts 286°
2026-05-06 23:23 44.31812 -81.69693 28214 ft 385 kts 286°
2026-05-06 23:23 44.32872 -81.73115 28501 ft 384 kts 286°
2026-05-06 23:23 44.33920 -81.76508 28772 ft 383 kts 285°
2026-05-06 23:23 44.34969 -81.79908 29010 ft 383 kts 285°
2026-05-06 23:24 44.36029 -81.83348 29253 ft 383 kts 286°
2026-05-06 23:24 44.37077 -81.86752 29521 ft 381 kts 285°
2026-05-06 23:24 44.38123 -81.90160 29781 ft 380 kts 285°
2026-05-06 23:24 44.39160 -81.93544 30022 ft 380 kts 285°
2026-05-06 23:25 44.40190 -81.96909 30235 ft 379 kts 285°
2026-05-06 23:25 44.41231 -82.00307 30420 ft 379 kts 285°
2026-05-06 23:25 44.42267 -82.03699 30554 ft 379 kts 285°
2026-05-06 23:25 44.43301 -82.07092 30689 ft 380 kts 285°
2026-05-06 23:26 44.44346 -82.10517 30799 ft 380 kts 285°
2026-05-06 23:26 44.45387 -82.13945 30919 ft 381 kts 286°
2026-05-06 23:26 44.46422 -82.17351 31030 ft 382 kts 285°
2026-05-06 23:27 44.48358 -82.24278 31211 ft 382 kts 283°
2026-05-06 23:27 44.49281 -82.27752 31338 ft 382 kts 283°
2026-05-06 23:27 44.50212 -82.31257 31443 ft 383 kts 283°
2026-05-06 23:27 44.51139 -82.34761 31548 ft 383 kts 284°
2026-05-06 23:28 44.52068 -82.38268 31651 ft 384 kts 284°
2026-05-06 23:28 44.53928 -82.45317 31826 ft 386 kts 284°
2026-05-06 23:29 44.55789 -82.52393 31942 ft 388 kts 284°
2026-05-06 23:29 44.57647 -82.59470 31940 ft 389 kts 284°
2026-05-06 23:30 44.59508 -82.66581 31944 ft 389 kts 283°
2026-05-06 23:30 44.61361 -82.73688 31950 ft 389 kts 283°
2026-05-06 23:31 44.63224 -82.80853 31947 ft 388 kts 283°
2026-05-06 23:31 44.65084 -82.88020 31946 ft 389 kts 283°
2026-05-06 23:32 44.66929 -82.95169 31942 ft 389 kts 284°
2026-05-06 23:32 44.68783 -83.02361 31938 ft 390 kts 284°
2026-05-06 23:33 44.70628 -83.09537 31935 ft 390 kts 284°
2026-05-06 23:33 44.72484 -83.16791 31940 ft 391 kts 284°
2026-05-06 23:34 44.74314 -83.23955 31934 ft 390 kts 283°
2026-05-06 23:34 44.76159 -83.31207 31934 ft 390 kts 283°
2026-05-06 23:35 44.77991 -83.38431 31927 ft 392 kts 284°
2026-05-06 23:35 44.79810 -83.45625 31929 ft 392 kts 284°
2026-05-06 23:36 44.81636 -83.52865 31921 ft 391 kts 284°
2026-05-06 23:36 44.83474 -83.60177 31917 ft 393 kts 284°
2026-05-06 23:37 44.85285 -83.67413 31918 ft 393 kts 283°
2026-05-06 23:37 44.87104 -83.74694 31924 ft 393 kts 283°
2026-05-06 23:38 44.88916 -83.81974 31924 ft 393 kts 283°
2026-05-06 23:38 44.90715 -83.89225 31925 ft 394 kts 283°
2026-05-06 23:39 44.92522 -83.96527 31929 ft 393 kts 283°
2026-05-06 23:39 44.94325 -84.03842 31921 ft 394 kts 283°
2026-05-06 23:40 44.96143 -84.11237 31935 ft 395 kts 283°
2026-05-06 23:40 44.97942 -84.18582 31928 ft 396 kts 283°
2026-05-06 23:41 44.99752 -84.25929 31932 ft 398 kts 285°
2026-05-06 23:41 45.01834 -84.33220 31927 ft 401 kts 287°
2026-05-06 23:42 45.03976 -84.40549 31932 ft 402 kts 287°
2026-05-06 23:42 45.06101 -84.47845 31935 ft 402 kts 287°
2026-05-06 23:43 45.08236 -84.55202 31939 ft 403 kts 287°
2026-05-06 23:43 45.10369 -84.62570 31940 ft 405 kts 288°
2026-05-06 23:44 45.12489 -84.69913 31951 ft 405 kts 287°
2026-05-06 23:44 45.14617 -84.77305 31953 ft 406 kts 287°
2026-05-06 23:45 45.16757 -84.84760 31961 ft 406 kts 287°
2026-05-06 23:45 45.18883 -84.92194 31954 ft 407 kts 287°
2026-05-06 23:46 45.20999 -84.99612 31956 ft 408 kts 287°
2026-05-06 23:46 45.23122 -85.07076 31955 ft 408 kts 287°
2026-05-06 23:47 45.25240 -85.14548 31960 ft 410 kts 287°
2026-05-06 23:47 45.27365 -85.22068 31961 ft 410 kts 288°
2026-05-06 23:48 45.29508 -85.29671 31960 ft 411 kts 288°
2026-05-06 23:48 45.31631 -85.37225 31961 ft 411 kts 288°
2026-05-06 23:49 45.33737 -85.44742 31962 ft 411 kts 288°
2026-05-06 23:49 45.35848 -85.52310 31959 ft 411 kts 288°
2026-05-06 23:50 45.37966 -85.59921 31950 ft 412 kts 288°
2026-05-06 23:50 45.41149 -85.71404 31951 ft 412 kts 287°
2026-05-06 23:51 45.43252 -85.79018 31952 ft 413 kts 288°
2026-05-06 23:51 45.45359 -85.86674 31953 ft 413 kts 288°
2026-05-06 23:52 45.47443 -85.94269 31947 ft 414 kts 288°
2026-05-06 23:52 45.49528 -86.01894 31949 ft 414 kts 288°
2026-05-06 23:53 45.51613 -86.09535 31957 ft 415 kts 288°
2026-05-06 23:53 45.53690 -86.17180 31955 ft 415 kts 288°
2026-05-06 23:54 45.55781 -86.24899 31956 ft 416 kts 288°
2026-05-06 23:54 45.57853 -86.32574 31955 ft 416 kts 288°
2026-05-06 23:55 45.59930 -86.40289 31955 ft 417 kts 288°
2026-05-06 23:55 45.62012 -86.48048 31962 ft 417 kts 288°
2026-05-06 23:56 45.64078 -86.55778 31962 ft 417 kts 288°
2026-05-06 23:56 45.66149 -86.63546 31963 ft 417 kts 288°
2026-05-06 23:57 45.68204 -86.71286 31965 ft 417 kts 288°
2026-05-06 23:57 45.70270 -86.79085 31968 ft 418 kts 288°
2026-05-06 23:58 45.72318 -86.86842 31965 ft 418 kts 288°
2026-05-06 23:58 45.74370 -86.94640 31967 ft 419 kts 288°
2026-05-06 23:59 45.76410 -87.02428 31960 ft 420 kts 288°
2026-05-06 23:59 45.78469 -87.10307 31964 ft 421 kts 288°
2026-05-07 00:00 45.80505 -87.18128 31959 ft 421 kts 288°
2026-05-07 00:00 45.82219 -87.24729 31958 ft 421 kts 288°
2026-05-07 00:01 45.84582 -87.33862 31955 ft 420 kts 288°
2026-05-07 00:01 45.86617 -87.41754 31951 ft 420 kts 289°
2026-05-07 00:02 45.88644 -87.49637 31948 ft 420 kts 289°
2026-05-07 00:02 45.90665 -87.57532 31944 ft 421 kts 288°
2026-05-07 00:03 45.92684 -87.65445 31950 ft 421 kts 288°
2026-05-07 00:03 45.94706 -87.73399 31949 ft 422 kts 288°
2026-05-07 00:04 45.96714 -87.81319 31947 ft 421 kts 288°
2026-05-07 00:04 45.98727 -87.89292 31953 ft 422 kts 288°
2026-05-07 00:05 46.00724 -87.97224 31947 ft 423 kts 288°
2026-05-07 00:05 46.02713 -88.05159 31948 ft 423 kts 288°
2026-05-07 00:06 46.04823 -88.13019 31946 ft 424 kts 290°
2026-05-07 00:06 46.07030 -88.20908 31949 ft 424 kts 290°
2026-05-07 00:07 46.09226 -88.28776 31943 ft 425 kts 290°
2026-05-07 00:07 46.11419 -88.36670 31943 ft 425 kts 290°
2026-05-07 00:08 46.13629 -88.44647 31940 ft 426 kts 291°
2026-05-07 00:08 46.15828 -88.52610 31938 ft 425 kts 291°
2026-05-07 00:09 46.18002 -88.60511 31945 ft 425 kts 291°
2026-05-07 00:09 46.20181 -88.68459 31950 ft 425 kts 290°
2026-05-07 00:10 46.22351 -88.76401 31944 ft 425 kts 290°
2026-05-07 00:10 46.24517 -88.84354 31952 ft 425 kts 290°
2026-05-07 00:11 46.26672 -88.92291 31948 ft 425 kts 290°
2026-05-07 00:11 46.28828 -89.00264 31955 ft 425 kts 290°
2026-05-07 00:12 46.30970 -89.08205 31947 ft 426 kts 290°
2026-05-07 00:12 46.33117 -89.16195 31957 ft 426 kts 290°
2026-05-07 00:13 46.35249 -89.24158 31962 ft 426 kts 290°
2026-05-07 00:13 46.37384 -89.32152 31961 ft 425 kts 290°
2026-05-07 00:14 46.39503 -89.40121 31964 ft 425 kts 291°
2026-05-07 00:14 46.41618 -89.48095 31957 ft 425 kts 291°
2026-05-07 00:15 46.43720 -89.56054 31958 ft 426 kts 291°
2026-05-07 00:15 46.45841 -89.64109 31951 ft 426 kts 291°
2026-05-07 00:16 46.47942 -89.72114 31961 ft 425 kts 290°
2026-05-07 00:16 46.50042 -89.80145 31954 ft 425 kts 290°
2026-05-07 00:17 46.52125 -89.88138 31966 ft 425 kts 290°
2026-05-07 00:17 46.54218 -89.96197 31968 ft 426 kts 290°
2026-05-07 00:18 46.56291 -90.04203 31975 ft 426 kts 290°
2026-05-07 00:18 46.58367 -90.12257 31985 ft 425 kts 290°
2026-05-07 00:19 46.60424 -90.20259 31988 ft 425 kts 290°
2026-05-07 00:19 46.62482 -90.28294 31987 ft 425 kts 290°
2026-05-07 00:20 46.64541 -90.36362 31983 ft 425 kts 290°
2026-05-07 00:20 46.66585 -90.44396 31984 ft 425 kts 290°
2026-05-07 00:21 46.68633 -90.52477 31994 ft 425 kts 291°
2026-05-07 00:21 46.70661 -90.60507 31987 ft 425 kts 291°
2026-05-07 00:22 46.72694 -90.68584 31988 ft 425 kts 290°
2026-05-07 00:22 46.74710 -90.76623 32001 ft 424 kts 290°
2026-05-07 00:23 46.76731 -90.84714 31996 ft 425 kts 290°
2026-05-07 00:23 46.78744 -90.92799 31985 ft 425 kts 290°
2026-05-07 00:24 46.80752 -91.00892 31981 ft 424 kts 290°
2026-05-07 00:24 46.82744 -91.08950 31986 ft 425 kts 290°
2026-05-07 00:25 46.84740 -91.17053 31979 ft 424 kts 290°
2026-05-07 00:25 46.86729 -91.25156 31992 ft 425 kts 290°
2026-05-07 00:26 46.88725 -91.33319 31991 ft 425 kts 290°
2026-05-07 00:26 46.90705 -91.41444 31996 ft 425 kts 290°
2026-05-07 00:27 46.92671 -91.49541 31998 ft 424 kts 290°
2026-05-07 00:27 46.94629 -91.57634 31995 ft 424 kts 291°
2026-05-07 00:28 46.96587 -91.65756 31990 ft 425 kts 290°
2026-05-07 00:28 46.98563 -91.73991 31999 ft 425 kts 290°
2026-05-07 00:29 47.00514 -91.82142 31997 ft 425 kts 290°
2026-05-07 00:30 47.04409 -91.98518 31999 ft 425 kts 290°
2026-05-07 00:30 47.06340 -92.06681 31987 ft 425 kts 290°
2026-05-07 00:31 47.08279 -92.14906 31984 ft 426 kts 290°
2026-05-07 00:31 47.10213 -92.23140 31977 ft 426 kts 290°
2026-05-07 00:32 47.12137 -92.31362 31977 ft 426 kts 290°
2026-05-07 00:32 47.14039 -92.39525 31977 ft 426 kts 290°
2026-05-07 00:33 47.15947 -92.47749 31976 ft 426 kts 290°
2026-05-07 00:33 47.17848 -92.55968 31974 ft 426 kts 290°
2026-05-07 00:34 47.19750 -92.64219 31974 ft 427 kts 290°
2026-05-07 00:34 47.21641 -92.72463 31970 ft 428 kts 289°
2026-05-07 00:35 47.23542 -92.80775 31975 ft 428 kts 289°
2026-05-07 00:35 47.25423 -92.89034 31980 ft 428 kts 289°
2026-05-07 00:36 47.27314 -92.97371 31992 ft 428 kts 289°
2026-05-07 00:36 47.29192 -93.05681 31989 ft 428 kts 289°
2026-05-07 00:37 47.31058 -93.13972 31987 ft 428 kts 289°
2026-05-07 00:37 47.32935 -93.22346 31981 ft 428 kts 289°
2026-05-07 00:38 47.34793 -93.30664 31988 ft 429 kts 289°
2026-05-07 00:38 47.36653 -93.39027 31989 ft 429 kts 289°
2026-05-07 00:39 47.38498 -93.47353 31993 ft 429 kts 289°
2026-05-07 00:39 47.40340 -93.55700 31986 ft 429 kts 289°
2026-05-07 00:40 47.42182 -93.64080 31983 ft 429 kts 289°
2026-05-07 00:40 47.44007 -93.72417 31983 ft 429 kts 289°
2026-05-07 00:41 47.45841 -93.80822 31976 ft 430 kts 288°
2026-05-07 00:41 47.47669 -93.89237 31986 ft 430 kts 289°
2026-05-07 00:42 47.49475 -93.97599 31986 ft 431 kts 289°
2026-05-07 00:42 47.51256 -94.06078 31977 ft 431 kts 288°
2026-05-07 00:43 47.52982 -94.14565 31973 ft 430 kts 288°
2026-05-07 00:43 47.54691 -94.22988 31975 ft 430 kts 288°
2026-05-07 00:44 47.56406 -94.31461 31974 ft 430 kts 288°
2026-05-07 00:44 47.58116 -94.39940 31975 ft 430 kts 288°
2026-05-07 00:45 47.59829 -94.48464 31973 ft 430 kts 288°
2026-05-07 00:45 47.61518 -94.56908 31978 ft 431 kts 288°
2026-05-07 00:46 47.63213 -94.65417 31974 ft 431 kts 287°
2026-05-07 00:46 47.64899 -94.73917 31976 ft 431 kts 287°
2026-05-07 00:47 47.66582 -94.82445 31976 ft 430 kts 287°
2026-05-07 00:47 47.68260 -94.90980 31977 ft 431 kts 287°
2026-05-07 00:48 47.69928 -94.99501 31979 ft 431 kts 287°
2026-05-07 00:48 47.71593 -95.08043 31972 ft 431 kts 287°
2026-05-07 00:49 47.73253 -95.16601 31976 ft 431 kts 287°
2026-05-07 00:49 47.74907 -95.25164 31973 ft 431 kts 287°
2026-05-07 00:50 47.76550 -95.33716 31974 ft 431 kts 287°
2026-05-07 00:50 47.78193 -95.42301 31974 ft 431 kts 287°
2026-05-07 00:51 47.79815 -95.50808 31976 ft 431 kts 287°
2026-05-07 00:51 47.81440 -95.59377 31975 ft 431 kts 287°
2026-05-07 00:52 47.83057 -95.67945 31978 ft 431 kts 287°
2026-05-07 00:52 47.84666 -95.76508 31978 ft 431 kts 287°
2026-05-07 00:53 47.86275 -95.85101 31977 ft 431 kts 287°
2026-05-07 00:53 47.87870 -95.93669 31979 ft 431 kts 287°
2026-05-07 00:54 47.89461 -96.02254 31979 ft 431 kts 287°
2026-05-07 00:54 47.91058 -96.10909 31984 ft 431 kts 287°
2026-05-07 00:55 47.92641 -96.19533 31986 ft 431 kts 287°
2026-05-07 00:55 47.94207 -96.28101 31986 ft 430 kts 287°
2026-05-07 00:56 47.95779 -96.36734 31990 ft 430 kts 287°
2026-05-07 00:56 47.97332 -96.45310 31986 ft 430 kts 287°
2026-05-07 00:57 47.98878 -96.53891 31981 ft 430 kts 287°
2026-05-07 00:57 48.00423 -96.62508 31983 ft 431 kts 287°
2026-05-07 00:58 48.01967 -96.71160 31981 ft 431 kts 286°
2026-05-07 00:58 48.03502 -96.79797 31982 ft 431 kts 286°
2026-05-07 00:59 48.05786 -96.92725 31982 ft 429 kts 286°
2026-05-07 01:00 48.07299 -97.01345 31985 ft 429 kts 286°
2026-05-07 01:00 48.08806 -97.09978 31976 ft 429 kts 286°
2026-05-07 01:01 48.10317 -97.18672 31971 ft 430 kts 286°
2026-05-07 01:01 48.11820 -97.27357 31975 ft 430 kts 287°
2026-05-07 01:02 48.13313 -97.36039 31963 ft 430 kts 287°
2026-05-07 01:02 48.14726 -97.44686 31969 ft 430 kts 285°
2026-05-07 01:03 48.16015 -97.53392 31963 ft 429 kts 285°
2026-05-07 01:03 48.17306 -97.62138 31952 ft 429 kts 285°
2026-05-07 01:04 48.18590 -97.70844 31952 ft 429 kts 284°
2026-05-07 01:04 48.19881 -97.79607 31936 ft 429 kts 284°
2026-05-07 01:05 48.21161 -97.88345 31928 ft 429 kts 284°
2026-05-07 01:05 48.22431 -97.97060 31928 ft 429 kts 284°
2026-05-07 01:06 48.23710 -98.05888 31933 ft 429 kts 285°
2026-05-07 01:06 48.24969 -98.14625 31935 ft 428 kts 285°
2026-05-07 01:07 48.26223 -98.23382 31946 ft 428 kts 285°
2026-05-07 01:07 48.27464 -98.32087 31940 ft 428 kts 285°
2026-05-07 01:08 48.28696 -98.40794 31942 ft 426 kts 285°
2026-05-07 01:08 48.29917 -98.49463 31945 ft 427 kts 285°
2026-05-07 01:09 48.31138 -98.58184 31937 ft 426 kts 285°
2026-05-07 01:09 48.32351 -98.66908 31936 ft 426 kts 285°
2026-05-07 01:10 48.33553 -98.75599 31937 ft 426 kts 285°
2026-05-07 01:10 48.34751 -98.84311 31941 ft 426 kts 285°
2026-05-07 01:11 48.35936 -98.92969 31935 ft 426 kts 285°
2026-05-07 01:11 48.37121 -99.01683 31936 ft 425 kts 285°
2026-05-07 01:12 48.38291 -99.10355 31936 ft 425 kts 285°
2026-05-07 01:12 48.39462 -99.19074 31933 ft 424 kts 286°
2026-05-07 01:13 48.40620 -99.27754 31929 ft 423 kts 286°
2026-05-07 01:13 48.41769 -99.36413 31928 ft 423 kts 286°
2026-05-07 01:14 48.42915 -99.45103 31927 ft 423 kts 286°
2026-05-07 01:14 48.44054 -99.53802 31928 ft 422 kts 287°
2026-05-07 01:15 48.45179 -99.62440 31932 ft 422 kts 287°
2026-05-07 01:15 48.46301 -99.71115 31934 ft 421 kts 286°
2026-05-07 01:16 48.47416 -99.79767 31939 ft 421 kts 286°
2026-05-07 01:16 48.48525 -99.88433 31944 ft 421 kts 286°
2026-05-07 01:17 48.49616 -99.97045 31948 ft 420 kts 287°
2026-05-07 01:17 48.50765 -100.05627 31955 ft 417 kts 288°
2026-05-07 01:18 48.51994 -100.14131 31952 ft 417 kts 288°
2026-05-07 01:18 48.53212 -100.22662 31944 ft 415 kts 288°
2026-05-07 01:19 48.54414 -100.31134 31941 ft 415 kts 289°
2026-05-07 01:19 48.55611 -100.39658 31938 ft 414 kts 289°
2026-05-07 01:20 48.56796 -100.48141 31930 ft 412 kts 289°
2026-05-07 01:20 48.57973 -100.56616 31929 ft 412 kts 289°
2026-05-07 01:21 48.59140 -100.65082 31938 ft 411 kts 289°
2026-05-07 01:21 48.60294 -100.73492 31920 ft 409 kts 289°
2026-05-07 01:22 48.61438 -100.81879 31942 ft 409 kts 289°
2026-05-07 01:22 48.62574 -100.90256 31945 ft 408 kts 289°
2026-05-07 01:23 48.63696 -100.98570 31937 ft 406 kts 290°
2026-05-07 01:23 48.64823 -101.06979 31974 ft 404 kts 290°
2026-05-07 01:24 48.65933 -101.15299 31971 ft 405 kts 290°
2026-05-07 01:24 48.67042 -101.23661 31951 ft 404 kts 290°
2026-05-07 01:25 48.68131 -101.31921 31941 ft 404 kts 290°
2026-05-07 01:25 48.69215 -101.40226 31942 ft 402 kts 290°
2026-05-07 01:26 48.70298 -101.48520 31938 ft 400 kts 290°
2026-05-07 01:26 48.71366 -101.56789 31932 ft 400 kts 291°
2026-05-07 01:27 48.72431 -101.65048 31933 ft 400 kts 290°
2026-05-07 01:27 48.73489 -101.73329 31926 ft 400 kts 290°
2026-05-07 01:28 48.74533 -101.81554 31926 ft 400 kts 290°
2026-05-07 01:28 48.75574 -101.89781 31925 ft 398 kts 290°
2026-05-07 01:29 48.76611 -101.98042 31929 ft 399 kts 291°
2026-05-07 01:29 48.77645 -102.06300 31925 ft 397 kts 290°
2026-05-07 01:30 48.78663 -102.14513 31918 ft 398 kts 290°
2026-05-07 01:30 48.79672 -102.22702 31913 ft 398 kts 291°
2026-05-07 01:31 48.80685 -102.30943 31909 ft 397 kts 290°
2026-05-07 01:31 48.81688 -102.39185 31907 ft 397 kts 290°
2026-05-07 01:32 48.82679 -102.47384 31909 ft 400 kts 291°
2026-05-07 01:32 48.83673 -102.55657 31909 ft 399 kts 291°
2026-05-07 01:33 48.84659 -102.63900 31907 ft 398 kts 290°
2026-05-07 01:33 48.85646 -102.72211 31908 ft 399 kts 290°
2026-05-07 01:34 48.86619 -102.80483 31908 ft 400 kts 290°
2026-05-07 01:34 48.87590 -102.88751 31907 ft 400 kts 290°
2026-05-07 01:35 48.88558 -102.97064 31908 ft 400 kts 290°
2026-05-07 01:35 48.89519 -103.05352 31910 ft 400 kts 290°
2026-05-07 01:36 48.90472 -103.13666 31912 ft 400 kts 290°
2026-05-07 01:36 48.91423 -103.21997 31915 ft 401 kts 290°
2026-05-07 01:37 48.92370 -103.30325 31916 ft 400 kts 289°
2026-05-07 01:37 48.93305 -103.38633 31914 ft 401 kts 290°
2026-05-07 01:38 48.94239 -103.46981 31915 ft 400 kts 289°
2026-05-07 01:38 48.95161 -103.55311 31916 ft 400 kts 289°
2026-05-07 01:39 48.96086 -103.63681 31916 ft 401 kts 289°
2026-05-07 01:39 48.97001 -103.72007 31917 ft 402 kts 289°
2026-05-07 01:40 48.97918 -103.80431 31915 ft 403 kts 289°
2026-05-07 01:40 48.98823 -103.88811 31918 ft 403 kts 289°
2026-05-07 01:41 48.99721 -103.97205 31920 ft 403 kts 288°
2026-05-07 01:41 49.00533 -104.05669 31917 ft 405 kts 287°
2026-05-07 01:42 49.01226 -104.14203 31913 ft 405 kts 287°
2026-05-07 01:42 49.01914 -104.22658 31913 ft 404 kts 287°
2026-05-07 01:43 49.02606 -104.31165 31910 ft 404 kts 287°
2026-05-07 01:43 49.03291 -104.39626 31910 ft 406 kts 287°
2026-05-07 01:44 49.03976 -104.48144 31912 ft 406 kts 287°
2026-05-07 01:44 49.04657 -104.56709 31909 ft 406 kts 287°
2026-05-07 01:45 49.05333 -104.65262 31907 ft 406 kts 286°
2026-05-07 01:45 49.06002 -104.73830 31906 ft 406 kts 286°
2026-05-07 01:46 49.06659 -104.82320 31906 ft 405 kts 285°
2026-05-07 01:46 49.07314 -104.90854 31906 ft 406 kts 286°
2026-05-07 01:47 49.07961 -104.99390 31900 ft 406 kts 286°
2026-05-07 01:47 49.08610 -105.08018 31904 ft 406 kts 286°
2026-05-07 01:48 49.09250 -105.16601 31901 ft 408 kts 285°
2026-05-07 01:48 49.09883 -105.25208 31904 ft 407 kts 285°
2026-05-07 01:49 49.10505 -105.33763 31902 ft 406 kts 285°
2026-05-07 01:49 49.11122 -105.42319 31905 ft 407 kts 285°
2026-05-07 01:50 49.11738 -105.50951 31903 ft 407 kts 285°
2026-05-07 01:50 49.12344 -105.59518 31900 ft 406 kts 285°
2026-05-07 01:51 49.12938 -105.68051 31906 ft 407 kts 284°
2026-05-07 01:51 49.13533 -105.76678 31910 ft 407 kts 284°
2026-05-07 01:52 49.14123 -105.85276 31902 ft 408 kts 284°
2026-05-07 01:52 49.14704 -105.93861 31896 ft 408 kts 284°
2026-05-07 01:53 49.15273 -106.02418 31891 ft 407 kts 284°
2026-05-07 01:53 49.15841 -106.11016 31890 ft 407 kts 284°
2026-05-07 01:54 49.16405 -106.19631 31892 ft 407 kts 284°
2026-05-07 01:54 49.16962 -106.28251 31890 ft 407 kts 283°
2026-05-07 01:55 49.17507 -106.36812 31887 ft 408 kts 283°
2026-05-07 01:55 49.18051 -106.45464 31886 ft 408 kts 283°
2026-05-07 01:56 49.18588 -106.54067 31885 ft 409 kts 283°
2026-05-07 01:56 49.19121 -106.62717 31883 ft 409 kts 283°
2026-05-07 01:57 49.19644 -106.71331 31883 ft 410 kts 282°
2026-05-07 01:57 49.20165 -106.80009 31881 ft 411 kts 282°
2026-05-07 01:58 49.20679 -106.88709 31878 ft 410 kts 283°
2026-05-07 01:58 49.21457 -106.97248 31881 ft 407 kts 286°
2026-05-07 01:59 49.22357 -107.05647 31884 ft 407 kts 286°
2026-05-07 01:59 49.23281 -107.14304 31884 ft 407 kts 286°
2026-05-07 02:00 49.24185 -107.22832 31884 ft 408 kts 286°
2026-05-07 02:00 49.25085 -107.31390 31885 ft 408 kts 286°
2026-05-07 02:01 49.25981 -107.39949 31885 ft 409 kts 285°
2026-05-07 02:01 49.26872 -107.48551 31885 ft 409 kts 285°
2026-05-07 02:02 49.27750 -107.57101 31887 ft 409 kts 285°
2026-05-07 02:02 49.28624 -107.65668 31884 ft 410 kts 285°
2026-05-07 02:03 49.29503 -107.74320 31885 ft 410 kts 285°
2026-05-07 02:03 49.30365 -107.82906 31884 ft 411 kts 285°
2026-05-07 02:04 49.31230 -107.91579 31884 ft 412 kts 284°
2026-05-07 02:04 49.32088 -108.00247 31881 ft 412 kts 284°
2026-05-07 02:05 49.32937 -108.08885 31877 ft 411 kts 284°
2026-05-07 02:05 49.33775 -108.17486 31871 ft 411 kts 284°
2026-05-07 02:06 49.34611 -108.26148 31871 ft 411 kts 284°
2026-05-07 02:06 49.35442 -108.34816 31868 ft 411 kts 284°
2026-05-07 02:07 49.36267 -108.43472 31865 ft 412 kts 284°
2026-05-07 02:07 49.37491 -108.56494 31865 ft 412 kts 284°
2026-05-07 02:08 49.38301 -108.65177 31866 ft 412 kts 283°
2026-05-07 02:08 49.39100 -108.73849 31865 ft 413 kts 283°
2026-05-07 02:09 49.39905 -108.82636 31865 ft 413 kts 283°
2026-05-07 02:09 49.40698 -108.91363 31868 ft 413 kts 283°
2026-05-07 02:10 49.41481 -109.00081 31867 ft 414 kts 283°
2026-05-07 02:10 49.42263 -109.08844 31868 ft 414 kts 283°
2026-05-07 02:11 49.43038 -109.17598 31869 ft 413 kts 283°
2026-05-07 02:11 49.43803 -109.26325 31870 ft 413 kts 283°
2026-05-07 02:12 49.44561 -109.35056 31869 ft 413 kts 282°
2026-05-07 02:12 49.45312 -109.43769 31864 ft 413 kts 282°
2026-05-07 02:13 49.46057 -109.52492 31861 ft 413 kts 282°
2026-05-07 02:13 49.46798 -109.61256 31859 ft 413 kts 282°
2026-05-07 02:14 49.47528 -109.69976 31862 ft 414 kts 282°
2026-05-07 02:14 49.48253 -109.78719 31867 ft 414 kts 282°
2026-05-07 02:15 49.48976 -109.87504 31866 ft 414 kts 281°
2026-05-07 02:15 49.49691 -109.96293 31865 ft 414 kts 281°
2026-05-07 02:16 49.50143 -110.05106 31865 ft 416 kts 277°
2026-05-07 02:16 49.50412 -110.14018 31867 ft 416 kts 277°
2026-05-07 02:17 49.50668 -110.22861 31867 ft 415 kts 277°
2026-05-07 02:17 49.50922 -110.31727 31868 ft 415 kts 277°
2026-05-07 02:18 49.51168 -110.40567 31859 ft 415 kts 277°
2026-05-07 02:18 49.51408 -110.49448 31854 ft 415 kts 277°
2026-05-07 02:19 49.51643 -110.58323 31851 ft 415 kts 277°
2026-05-07 02:19 49.51868 -110.67174 31843 ft 415 kts 276°
2026-05-07 02:20 49.52087 -110.76037 31842 ft 414 kts 276°
2026-05-07 02:20 49.52300 -110.84851 31840 ft 415 kts 276°
2026-05-07 02:21 49.52507 -110.93740 31841 ft 415 kts 276°
2026-05-07 02:21 49.52707 -111.02606 31832 ft 415 kts 276°
2026-05-07 02:22 49.52898 -111.11456 31831 ft 415 kts 275°
2026-05-07 02:22 49.53084 -111.20308 31825 ft 413 kts 275°
2026-05-07 02:23 49.53261 -111.29100 31827 ft 413 kts 276°
2026-05-07 02:23 49.53434 -111.37885 31820 ft 413 kts 276°
2026-05-07 02:24 49.53598 -111.46685 31826 ft 411 kts 276°
2026-05-07 02:24 49.53758 -111.55514 31823 ft 411 kts 275°
2026-05-07 02:25 49.53910 -111.64294 31820 ft 411 kts 275°
2026-05-07 02:25 49.54055 -111.73070 31822 ft 411 kts 275°
2026-05-07 02:26 49.54194 -111.81868 31828 ft 411 kts 275°
2026-05-07 02:26 49.54334 -111.90584 31828 ft 409 kts 275°
2026-05-07 02:27 49.54567 -111.99312 31832 ft 406 kts 276°
2026-05-07 02:27 49.54798 -112.07937 31837 ft 406 kts 276°
2026-05-07 02:28 49.55025 -112.16658 31831 ft 407 kts 276°
2026-05-07 02:28 49.55241 -112.25365 31829 ft 407 kts 276°
2026-05-07 02:29 49.55450 -112.34090 31823 ft 407 kts 276°
2026-05-07 02:29 49.55648 -112.42728 31827 ft 407 kts 276°
2026-05-07 02:30 49.55843 -112.51402 31818 ft 406 kts 276°
2026-05-07 02:30 49.56032 -112.60103 31822 ft 405 kts 276°
2026-05-07 02:31 49.56213 -112.68782 31830 ft 405 kts 275°
2026-05-07 02:31 49.56387 -112.77433 31830 ft 404 kts 275°
2026-05-07 02:32 49.56554 -112.86050 31835 ft 404 kts 275°
2026-05-07 02:32 49.56714 -112.94672 31829 ft 404 kts 275°
2026-05-07 02:33 49.56869 -113.03303 31828 ft 403 kts 275°
2026-05-07 02:33 49.57017 -113.11965 31823 ft 404 kts 275°
2026-05-07 02:34 49.57161 -113.20609 31817 ft 405 kts 275°
2026-05-07 02:34 49.57297 -113.29288 31829 ft 404 kts 275°
2026-05-07 02:35 49.57426 -113.37933 31840 ft 404 kts 275°
2026-05-07 02:35 49.57549 -113.46598 31859 ft 404 kts 275°
2026-05-07 02:36 49.57665 -113.55236 31867 ft 404 kts 275°
2026-05-07 02:36 49.57775 -113.63936 31864 ft 405 kts 275°
2026-05-07 02:37 49.57878 -113.72619 31851 ft 405 kts 274°
2026-05-07 02:37 49.57976 -113.81319 31869 ft 405 kts 274°
2026-05-07 02:38 49.58065 -113.89956 31875 ft 405 kts 275°
2026-05-07 02:38 49.58150 -113.98632 31883 ft 406 kts 274°
2026-05-07 02:39 49.58229 -114.07285 31894 ft 407 kts 274°
2026-05-07 02:39 49.58300 -114.15999 31908 ft 407 kts 274°
2026-05-07 02:40 49.58364 -114.24709 31897 ft 407 kts 274°
2026-05-07 02:40 49.58425 -114.33461 31921 ft 406 kts 274°
2026-05-07 02:41 49.58477 -114.42146 31923 ft 407 kts 274°
2026-05-07 02:41 49.58521 -114.50868 31935 ft 407 kts 274°
2026-05-07 02:42 49.58561 -114.59644 31933 ft 408 kts 274°
2026-05-07 02:42 49.58594 -114.68407 31956 ft 408 kts 273°
2026-05-07 02:43 49.58619 -114.77158 31973 ft 409 kts 272°
2026-05-07 02:43 49.58638 -114.85900 31970 ft 410 kts 272°
2026-05-07 02:44 49.58652 -114.94659 31970 ft 411 kts 272°
2026-05-07 02:44 49.58659 -115.03504 31970 ft 411 kts 272°
2026-05-07 02:45 49.58654 -115.12252 31970 ft 411 kts 272°
2026-05-07 02:45 49.58434 -115.21073 31966 ft 412 kts 270°
2026-05-07 02:46 49.58159 -115.29927 31959 ft 412 kts 270°
2026-05-07 02:46 49.57880 -115.38679 31949 ft 411 kts 269°
2026-05-07 02:47 49.57596 -115.47419 31938 ft 410 kts 270°
2026-05-07 02:47 49.57303 -115.56213 31931 ft 409 kts 269°
2026-05-07 02:48 49.57005 -115.64973 31918 ft 409 kts 269°
2026-05-07 02:48 49.56701 -115.73718 31918 ft 409 kts 269°
2026-05-07 02:49 49.56393 -115.82423 31910 ft 409 kts 268°
2026-05-07 02:49 49.56076 -115.91143 31933 ft 409 kts 269°
2026-05-07 02:50 49.55752 -115.99865 31941 ft 408 kts 269°
2026-05-07 02:50 49.55477 -116.08607 31949 ft 407 kts 271°
2026-05-07 02:51 49.55581 -116.17282 31938 ft 408 kts 274°
2026-05-07 02:51 49.55745 -116.26012 31933 ft 407 kts 274°
2026-05-07 02:52 49.55905 -116.34698 31936 ft 407 kts 274°
2026-05-07 02:52 49.56059 -116.43426 31940 ft 406 kts 274°
2026-05-07 02:53 49.56204 -116.52093 31927 ft 408 kts 274°
2026-05-07 02:53 49.56348 -116.60855 31945 ft 408 kts 274°
2026-05-07 02:54 49.56483 -116.69544 31939 ft 408 kts 274°
2026-05-07 02:54 49.56610 -116.78278 31947 ft 407 kts 274°
2026-05-07 02:55 49.56731 -116.86990 31951 ft 408 kts 275°
2026-05-07 02:55 49.56849 -116.95819 31968 ft 408 kts 274°
2026-05-07 02:56 49.56960 -117.04621 31950 ft 408 kts 274°
2026-05-07 02:56 49.57059 -117.13353 31955 ft 407 kts 274°
2026-05-07 02:57 49.57154 -117.22117 31917 ft 408 kts 275°
2026-05-07 02:57 49.57242 -117.30821 31923 ft 407 kts 275°
2026-05-07 02:58 49.57325 -117.39540 31896 ft 405 kts 276°
2026-05-07 02:58 49.57402 -117.48244 31904 ft 405 kts 275°
2026-05-07 02:59 49.57469 -117.56930 31895 ft 405 kts 276°
2026-05-07 02:59 49.57531 -117.65644 31905 ft 404 kts 275°
2026-05-07 03:00 49.57587 -117.74306 31943 ft 404 kts 275°
2026-05-07 03:00 49.57639 -117.83027 31931 ft 405 kts 275°
2026-05-07 03:01 49.57677 -117.91670 31923 ft 404 kts 276°
2026-05-07 03:01 49.57714 -118.00362 31910 ft 403 kts 276°
2026-05-07 03:02 49.57745 -118.08945 31910 ft 403 kts 276°
2026-05-07 03:02 49.57764 -118.17531 31925 ft 400 kts 276°
2026-05-07 03:03 49.57776 -118.26091 31946 ft 400 kts 276°
2026-05-07 03:03 49.57782 -118.34673 31946 ft 399 kts 276°
2026-05-07 03:04 49.57788 -118.43200 31951 ft 399 kts 276°
2026-05-07 03:04 49.57784 -118.51754 31952 ft 400 kts 276°
2026-05-07 03:05 49.57777 -118.60339 31951 ft 399 kts 276°
2026-05-07 03:05 49.57761 -118.68793 31961 ft 397 kts 276°
2026-05-07 03:06 49.57740 -118.77351 31971 ft 398 kts 276°
2026-05-07 03:06 49.57715 -118.85824 31957 ft 397 kts 276°
2026-05-07 03:07 49.57682 -118.94368 31955 ft 398 kts 276°
2026-05-07 03:07 49.57642 -119.02903 31958 ft 396 kts 276°
2026-05-07 03:08 49.57597 -119.11415 31961 ft 397 kts 277°
2026-05-07 03:08 49.57549 -119.19859 31956 ft 395 kts 276°
2026-05-07 03:09 49.57489 -119.28347 31971 ft 396 kts 276°
2026-05-07 03:09 49.57427 -119.36794 31971 ft 396 kts 276°
2026-05-07 03:10 49.57357 -119.45225 31981 ft 395 kts 276°
2026-05-07 03:10 49.57280 -119.53683 31978 ft 396 kts 276°
2026-05-07 03:11 49.57197 -119.62135 31976 ft 396 kts 276°
2026-05-07 03:11 49.57108 -119.70667 31963 ft 397 kts 276°
2026-05-07 03:12 49.57011 -119.79256 31960 ft 397 kts 276°
2026-05-07 03:12 49.56910 -119.87800 31973 ft 397 kts 276°
2026-05-07 03:13 49.56799 -119.96338 31995 ft 397 kts 276°
2026-05-07 03:13 49.56689 -120.04864 32017 ft 397 kts 275°
2026-05-07 03:14 49.56568 -120.13453 32019 ft 396 kts 275°
2026-05-07 03:15 49.56374 -120.26283 32023 ft 395 kts 276°
2026-05-07 03:15 49.56238 -120.34772 32024 ft 395 kts 275°
2026-05-07 03:16 49.56099 -120.43244 32020 ft 395 kts 275°
2026-05-07 03:16 49.55951 -120.51650 32017 ft 395 kts 276°
2026-05-07 03:17 49.55797 -120.60175 32022 ft 395 kts 275°
2026-05-07 03:17 49.55633 -120.68701 32033 ft 396 kts 275°
2026-05-07 03:18 49.55467 -120.77211 32023 ft 395 kts 275°
2026-05-07 03:18 49.55294 -120.85682 32019 ft 395 kts 275°
2026-05-07 03:19 49.55116 -120.94144 32021 ft 395 kts 275°
2026-05-07 03:19 49.54931 -121.02627 32029 ft 394 kts 275°
2026-05-07 03:20 49.54738 -121.11146 32027 ft 395 kts 275°
2026-05-07 03:20 49.54543 -121.19602 32030 ft 395 kts 275°
2026-05-07 03:21 49.54340 -121.28055 32050 ft 395 kts 274°
2026-05-07 03:21 49.54132 -121.36488 31613 ft 396 kts 274°
2026-05-07 03:21 49.54023 -121.40771 30941 ft 395 kts 274°
2026-05-07 03:22 49.53916 -121.44949 30203 ft 396 kts 274°
2026-05-07 03:22 49.53806 -121.49195 29397 ft 397 kts 274°
2026-05-07 03:22 49.53696 -121.53470 28586 ft 399 kts 274°
2026-05-07 03:22 49.53584 -121.57714 27779 ft 401 kts 274°
2026-05-07 03:23 49.53468 -121.62033 26941 ft 403 kts 273°
2026-05-07 03:23 49.53350 -121.66360 26115 ft 404 kts 272°
2026-05-07 03:23 49.53228 -121.70663 25511 ft 400 kts 272°
2026-05-07 03:23 49.53107 -121.74940 24955 ft 396 kts 272°
2026-05-07 03:24 49.52985 -121.79144 24410 ft 392 kts 271°
2026-05-07 03:24 49.52864 -121.83305 23859 ft 388 kts 271°
2026-05-07 03:24 49.52741 -121.87478 23331 ft 385 kts 271°
2026-05-07 03:24 49.52617 -121.91657 22804 ft 381 kts 271°
2026-05-07 03:25 49.52495 -121.95743 22292 ft 378 kts 271°
2026-05-07 03:25 49.52347 -121.99723 21788 ft 377 kts 268°
2026-05-07 03:25 49.51837 -122.03702 21267 ft 380 kts 258°
2026-05-07 03:25 49.50901 -122.07501 20748 ft 383 kts 250°
2026-05-07 03:26 49.49583 -122.11121 20233 ft 385 kts 244°
2026-05-07 03:26 49.48181 -122.14619 19711 ft 384 kts 243°
2026-05-07 03:26 49.46777 -122.18083 19185 ft 383 kts 243°
2026-05-07 03:26 49.45396 -122.21538 18673 ft 381 kts 243°
2026-05-07 03:27 49.44013 -122.25026 18153 ft 380 kts 243°
2026-05-07 03:27 49.42658 -122.28439 17652 ft 379 kts 243°
2026-05-07 03:27 49.41284 -122.31891 17141 ft 378 kts 243°
2026-05-07 03:27 49.39897 -122.35378 16606 ft 377 kts 243°
2026-05-07 03:28 49.38529 -122.38808 16091 ft 376 kts 243°
2026-05-07 03:28 49.37158 -122.42243 15579 ft 376 kts 243°
2026-05-07 03:28 49.35781 -122.45690 15095 ft 372 kts 243°
2026-05-07 03:28 49.34448 -122.49021 14866 ft 362 kts 243°
2026-05-07 03:29 49.33142 -122.52273 14604 ft 352 kts 243°
2026-05-07 03:29 49.31881 -122.55415 14434 ft 340 kts 243°
2026-05-07 03:29 49.30664 -122.58441 14290 ft 328 kts 243°
2026-05-07 03:29 49.29469 -122.61409 14127 ft 317 kts 243°
2026-05-07 03:30 49.28392 -122.64271 14000 ft 304 kts 249°
2026-05-07 03:30 49.27631 -122.67213 13940 ft 294 kts 257°
2026-05-07 03:30 49.27101 -122.70281 13919 ft 295 kts 260°
2026-05-07 03:30 49.26626 -122.73303 13919 ft 296 kts 260°
2026-05-07 03:31 49.26141 -122.76394 13940 ft 296 kts 260°
2026-05-07 03:31 49.25657 -122.79437 13932 ft 295 kts 260°
2026-05-07 03:31 49.25165 -122.82493 13719 ft 291 kts 260°
2026-05-07 03:31 49.24678 -122.85501 13308 ft 292 kts 259°
2026-05-07 03:32 49.24244 -122.88516 12903 ft 289 kts 265°
2026-05-07 03:32 49.24178 -122.91549 12497 ft 284 kts 277°
2026-05-07 03:32 49.24464 -122.94511 12124 ft 281 kts 282°
2026-05-07 03:32 49.24836 -122.97440 11752 ft 279 kts 283°
2026-05-07 03:33 49.25207 -123.00311 11382 ft 277 kts 283°
2026-05-07 03:33 49.25574 -123.03196 10959 ft 277 kts 283°
2026-05-07 03:33 49.25935 -123.06073 10523 ft 277 kts 282°
2026-05-07 03:33 49.26299 -123.08992 10137 ft 276 kts 282°
2026-05-07 03:34 49.26645 -123.11787 9760 ft 274 kts 282°
2026-05-07 03:34 49.26998 -123.14647 9347 ft 274 kts 282°
2026-05-07 03:34 49.27355 -123.17494 8952 ft 273 kts 282°
2026-05-07 03:34 49.27712 -123.20338 8580 ft 271 kts 282°
2026-05-07 03:35 49.28067 -123.23184 8213 ft 269 kts 282°
2026-05-07 03:35 49.28415 -123.25980 7814 ft 269 kts 282°
2026-05-07 03:35 49.28762 -123.28771 7431 ft 268 kts 282°
2026-05-07 03:35 49.29108 -123.31567 7054 ft 266 kts 282°
2026-05-07 03:36 49.29453 -123.34354 6674 ft 265 kts 282°
2026-05-07 03:36 49.29793 -123.37106 6289 ft 264 kts 282°
2026-05-07 03:36 49.30134 -123.39871 5885 ft 264 kts 282°
2026-05-07 03:36 49.30474 -123.42642 5495 ft 264 kts 282°
2026-05-07 03:37 49.30809 -123.45381 5136 ft 263 kts 282°
2026-05-07 03:37 49.31142 -123.48119 4854 ft 258 kts 282°
2026-05-07 03:37 49.31462 -123.50745 4672 ft 249 kts 282°
2026-05-07 03:37 49.31724 -123.53328 4491 ft 242 kts 272°
2026-05-07 03:38 49.31350 -123.55771 4241 ft 239 kts 241°
2026-05-07 03:38 49.30193 -123.57580 3906 ft 240 kts 209°
2026-05-07 03:38 49.28615 -123.58318 3605 ft 238 kts 190°
2026-05-07 03:38 49.26961 -123.58270 3257 ft 239 kts 162°
2026-05-07 03:39 49.25595 -123.56973 2979 ft 234 kts 130°
2026-05-07 03:39 49.24686 -123.54890 2941 ft 227 kts 115°
2026-05-07 03:39 49.24182 -123.52673 2937 ft 219 kts 102°
2026-05-07 03:39 49.23925 -123.50371 2941 ft 219 kts 97°
2026-05-07 03:40 49.23728 -123.48064 2943 ft 219 kts 97°
2026-05-07 03:40 49.23511 -123.45834 3041 ft 201 kts 98°
2026-05-07 03:40 49.23286 -123.43806 3015 ft 182 kts 99°
2026-05-07 03:40 49.23076 -123.42004 2859 ft 167 kts 99°
2026-05-07 03:41 49.22873 -123.40306 2621 ft 159 kts 99°
2026-05-07 03:41 49.22681 -123.38686 2403 ft 151 kts 99°
2026-05-07 03:41 49.22496 -123.37123 2209 ft 149 kts 99°
2026-05-07 03:41 49.22313 -123.35570 2021 ft 148 kts 99°
2026-05-07 03:42 49.22133 -123.34045 1838 ft 147 kts 99°
2026-05-07 03:42 49.21960 -123.32561 1654 ft 146 kts 99°
2026-05-07 03:42 49.21783 -123.31044 1463 ft 145 kts 99°
2026-05-07 03:42 49.21608 -123.29530 1267 ft 144 kts 100°
2026-05-07 03:43 49.21433 -123.28021 1071 ft 143 kts 100°
2026-05-07 03:43 49.21260 -123.26529 893 ft 142 kts 101°
2026-05-07 03:43 49.21078 -123.25046 725 ft 142 kts 100°
2026-05-07 03:43 49.20918 -123.23573 516 ft 140 kts 99°
2026-05-07 03:44 49.20755 -123.22103 315 ft 140 kts 100°
2026-05-07 03:44 49.20584 -123.20649 121 ft 138 kts 101°
2026-05-07 03:44 49.20418 -123.19224 25 ft 129 kts 100°
2026-05-07 03:44 49.20287 -123.18066 19 ft 75 kts 100°
2026-05-07 03:45 49.20219 -123.17474 19 ft 45 kts 100°
2026-05-07 03:45 49.20170 -123.17074 15 ft 35 kts 109°
2026-05-07 03:45 49.20047 -123.16787 15 ft 23 kts 130°
2026-05-07 03:45 49.19964 -123.16635 15 ft 11 kts 130°
2026-05-07 03:46 49.19915 -123.16661 15 ft 10 kts 272°
2026-05-07 03:46 49.19928 -123.16778 15 ft 11 kts 281°
2026-05-07 03:46 49.19944 -123.16904 15 ft 12 kts 280°
2026-05-07 03:46 49.19960 -123.17038 15 ft 13 kts 280°
2026-05-07 03:47 49.19975 -123.17181 15 ft 13 kts 279°
2026-05-07 03:47 49.19990 -123.17328 15 ft 14 kts 279°
2026-05-07 03:47 49.20006 -123.17483 15 ft 14 kts 279°
2026-05-07 03:47 49.20024 -123.17637 16 ft 14 kts 280°
2026-05-07 03:48 49.20044 -123.17798 16 ft 15 kts 280°
2026-05-07 03:48 49.20062 -123.17956 18 ft 14 kts 280°
2026-05-07 03:48 49.20079 -123.18105 18 ft 14 kts 280°
2026-05-07 03:48 49.20099 -123.18268 17 ft 15 kts 280°
2026-05-07 03:49 49.20118 -123.18435 18 ft 15 kts 279°
2026-05-07 03:49 49.20042 -123.18511 16 ft 15 kts 192°
2026-05-07 03:49 49.19931 -123.18542 15 ft 16 kts 188°
2026-05-07 03:49 49.19815 -123.18567 15 ft 16 kts 192°
2026-05-07 03:50 49.19718 -123.18654 15 ft 16 kts 213°
2026-05-07 03:50 49.19612 -123.18698 15 ft 15 kts 188°
2026-05-07 03:50 49.19544 -123.18694 15 ft 6 kts 106°
2026-05-07 03:50 49.19540 -123.18663 15 ft 2 kts 104°
2026-05-07 03:51 49.19536 -123.18639 16 ft 1 kts 101°
2026-05-07 03:51 49.19535 -123.18629 16 ft 0 kts 100°
2026-05-07 03:51 49.19535 -123.18626 16 ft 0 kts 100°
2026-05-07 03:51 49.19534 -123.18623 16 ft 0 kts 100°